1483570801.19,33532,7.81,71210.3,-16.15,-17.49,-17.41,0,*6F
1483570802.4,33533,7.81,71212.3,-16.15,-17.49,-17.49,0,*66
1483570803.7,33534,7.81,71220.3,-16.17,-17.41,-17.41,0,*63
1483570804.98,33535,7.81,71208.0,-16.17,-17.25,-17.35,0,*63
1483570806.27,33536,7.81,71198.8,-16.17,-17.25,-17.25,0,*61
1483570807.55,33537,7.81,71200.5,-16.15,-17.21,-17.21,0,*62
1483570808.84,33538,7.81,71230.0,-16.17,-17.21,-17.21,0,*6F
1483570810.14,33539,7.81,71204.0,-16.17,-17.21,-17.21,0,*6E
1483570811.4,33540,7.81,71212.0,-16.15,-17.21,-17.25,0,*66
1483570812.68,33541,7.81,71234.5,-16.15,-17.21,-17.21,0,*63
1483570813.9,33542,7.81,71244.5,-16.15,-17.35,-17.35,0,*60
1483570815.13,33543,7.81,71260.5,-16.15,-17.35,-17.35,0,*61
1483570816.41,33544,7.81,71262.3,-16.15,-17.41,-17.41,0,*66
1483570817.67,33545,7.81,71268.8,-16.15,-17.63,-17.63,0,*67
1483570818.91,33546,7.81,71254.0,-16.15,-17.79,-17.69,0,*65
1483570820.12,33547,7.81,71244.0,-16.15,-17.69,-17.69,0,*65
1483570821.39,33548,7.81,71238.8,-16.17,-17.69,-17.63,0,*62
1483570822.66,33549,7.81,71230.3,-16.17,-17.69,-17.63,0,*63
1483570823.9,33550,7.81,71204.0,-16.17,-17.69,-17.69,0,*61
1483570825.17,33551,7.81,71226.5,-16.15,-17.41,-17.41,0,*62
1483570826.44,33552,7.88,71256.8,-16.15,-17.11,-17.21,0,*62
1483570827.7,33553,7.81,71250.5,-16.17,-17.35,-17.35,0,*62
1483570828.99,33554,7.81,71260.0,-16.17,-17.25,-17.25,0,*65
1483570830.28,33555,7.81,71272.0,-16.17,-17.25,-17.25,0,*64
1483570831.55,33556,7.81,71266.3,-16.17,-17.35,-17.25,0,*66
1483570832.78,33557,7.81,71278.5,-16.15,-17.35,-17.35,0,*64
1483570834.0,33558,7.81,71278.5,-16.15,-17.49,-17.49,0,*6B
1483570835.24,33559,7.81,71272.8,-16.17,-17.49,-17.49,0,*68
1483570836.51,33560,7.81,71268.8,-16.17,-17.63,-17.49,0,*6A
1483570837.79,33561,7.88,71240.0,-16.17,-17.79,-17.79,0,*63
1483570839.04,33562,7.81,71236.0,-16.17,-17.69,-17.69,0,*60
1483570840.31,33563,7.88,71234.8,-16.17,-17.49,-17.41,0,*69
1483570841.58,33564,7.81,71228.0,-16.17,-17.49,-17.41,0,*6E
1483570842.86,33565,7.81,71230.5,-16.17,-17.41,-17.35,0,*64
1483570844.12,33566,7.81,71246.3,-16.17,-17.35,-17.35,0,*64
1483570845.41,33567,7.81,71252.8,-16.17,-17.25,-17.25,0,*65
1483570846.66,33568,7.81,71256.8,-16.19,-17.41,-17.31,0,*63
1483570847.96,33569,7.81,71246.5,-16.17,-17.25,-17.21,0,*6F
1483570849.25,33570,7.81,71242.5,-16.17,-17.25,-17.25,0,*63
1483570850.52,33571,7.81,71256.3,-16.17,-17.35,-17.25,0,*63
1483570851.82,33572,7.81,71240.8,-16.17,-17.21,-17.11,0,*62
1483570853.11,33573,7.81,71228.5,-16.17,-17.25,-17.21,0,*64
1483570854.41,33574,7.81,71284.0,-16.17,-17.21,-17.25,0,*63
1483570855.66,33575,7.81,71280.5,-16.15,-17.35,-17.41,0,*67
1483570856.92,33576,7.81,71246.3,-16.15,-17.63,-17.63,0,*67
1483570858.18,33577,7.81,71262.0,-16.17,-17.55,-17.49,0,*69
1483570859.45,33578,7.81,71280.5,-16.17,-17.79,-17.69,0,*6A
1483570860.69,33579,7.81,71254.8,-16.15,-17.69,-17.63,0,*62
1483570861.96,33580,7.81,71222.3,-16.17,-17.69,-17.63,0,*66
1483570863.25,33581,7.81,71202.3,-16.17,-17.79,-17.79,0,*6D
1483570864.46,33582,7.81,71204.3,-16.19,-17.73,-17.73,0,*60
1483570865.73,33583,7.81,71220.5,-16.19,-17.59,-17.55,0,*6D
1483570867.01,33584,7.81,71226.0,-16.17,-17.25,-17.35,0,*69
1483570868.31,33585,7.81,71240.8,-16.17,-17.25,-17.21,0,*6D
1483570869.6,33586,7.81,71202.5,-16.17,-17.55,-17.55,0,*6A
1483570870.87,33587,7.81,71194.8,-16.19,-17.55,-17.41,0,*60
1483570872.15,33588,7.81,71206.3,-16.19,-17.41,-17.41,0,*6A
1483570873.4,33589,7.81,71230.5,-16.19,-17.41,-17.31,0,*6C
1483570874.69,33590,7.81,71244.8,-16.17,-17.21,-17.25,0,*69
1483570875.99,33591,7.81,71260.3,-16.17,-17.41,-17.41,0,*6C
1483570877.27,33592,7.81,71290.3,-16.19,-17.45,-17.55,0,*60
1483570878.54,33593,7.81,71270.8,-16.19,-17.45,-17.45,0,*60
1483570879.79,33594,7.81,71258.3,-16.19,-17.41,-17.31,0,*60
1483570881.07,33595,7.81,71252.3,-16.19,-17.41,-17.41,0,*66
1483570882.35,33596,7.81,71248.8,-16.19,-17.41,-17.41,0,*65
1483570883.63,33597,7.81,71254.3,-16.19,-17.41,-17.41,0,*64
1483570884.9,33598,7.81,71248.3,-16.19,-17.45,-17.45,0,*6B
1483570886.12,33599,7.81,71254.8,-16.19,-17.31,-17.31,0,*6A
1483570887.33,33600,7.81,71248.8,-16.19,-17.31,-17.31,0,*69
1483570888.61,33601,7.81,71256.0,-16.19,-17.41,-17.41,0,*68
1483570889.88,33602,7.81,71258.0,-16.19,-17.45,-17.45,0,*6B
1483570891.16,33603,7.81,71256.5,-16.19,-17.45,-17.41,0,*6E
1483570892.42,33604,7.81,71252.0,-16.17,-17.35,-17.35,0,*63
1483570893.72,33605,7.81,71274.8,-16.17,-17.41,-17.41,0,*62
1483570894.96,33606,7.81,71250.5,-16.17,-17.49,-17.49,0,*61
1483570896.22,33607,7.88,71240.0,-16.21,-17.55,-17.55,0,*65
1483570897.49,33608,7.81,71226.8,-16.19,-17.55,-17.45,0,*60
1483570898.77,33609,7.81,71214.8,-16.19,-17.45,-17.45,0,*60
1483570900.04,33610,7.88,71228.5,-16.19,-17.45,-17.45,0,*68
1483570901.32,33611,7.81,71260.0,-16.19,-17.45,-17.45,0,*69
1483570902.53,33612,7.81,71276.3,-16.19,-17.31,-17.31,0,*6A
1483570903.8,33613,7.81,71270.0,-16.21,-17.41,-17.55,0,*65
1483570905.08,33614,7.81,71264.5,-16.19,-17.41,-17.41,0,*6C
1483570906.32,33615,7.81,71274.8,-16.19,-17.45,-17.31,0,*6E
1483570907.59,33616,7.81,71266.3,-16.19,-17.55,-17.55,0,*6E
1483570908.86,33617,7.81,71252.3,-16.19,-17.55,-17.55,0,*6F
1483570910.14,33618,7.81,71262.5,-16.19,-17.45,-17.41,0,*64
1483570911.41,33619,7.81,71258.0,-16.19,-17.55,-17.45,0,*60
1483570912.68,33620,7.81,71264.5,-16.19,-17.55,-17.55,0,*6B
1483570913.96,33621,7.81,71274.3,-16.19,-17.45,-17.41,0,*6E
1483570915.23,33622,7.81,71274.0,-16.19,-17.45,-17.41,0,*6D
1483570916.51,33623,7.81,71270.5,-16.19,-17.45,-17.55,0,*69
1483570917.78,33624,7.81,71278.0,-16.19,-17.55,-17.45,0,*6E
1483570919.05,33625,7.81,71280.8,-16.19,-17.55,-17.59,0,*62
1483570920.33,33626,7.81,71278.5,-16.19,-17.59,-17.59,0,*6D
1483570921.6,33627,7.88,71284.3,-16.19,-17.59,-17.59,0,*6C
1483570922.82,33628,7.81,71274.3,-16.19,-17.69,-17.69,0,*63
1483570924.09,33629,7.81,71262.5,-16.19,-17.59,-17.59,0,*62
1483570925.35,33630,7.81,71254.3,-16.21,-17.55,-17.55,0,*61
1483570926.61,33631,7.81,71252.3,-16.21,-17.55,-17.55,0,*60
1483570927.87,33632,7.88,71270.3,-16.21,-17.45,-17.45,0,*63
1483570929.14,33633,7.81,71272.8,-16.19,-17.55,-17.45,0,*68
1483570930.42,33634,7.81,71282.5,-16.19,-17.45,-17.45,0,*6E
1483570931.7,33635,7.81,71266.0,-16.19,-17.45,-17.45,0,*6F
1483570932.93,33636,7.81,71266.3,-16.21,-17.69,-17.55,0,*68
1483570934.2,33637,7.81,71262.5,-16.19,-17.59,-17.55,0,*61
1483570935.46,33638,7.81,71250.8,-16.21,-17.45,-17.45,0,*69
1483570936.71,33639,7.81,71254.8,-16.19,-17.41,-17.31,0,*64
1483570937.93,33640,7.81,71252.0,-16.19,-17.31,-17.31,0,*6D
1483570939.17,33641,7.81,71236.5,-16.19,-17.41,-17.31,0,*6B
1483570940.44,33642,7.81,71228.0,-16.19,-17.25,-17.25,0,*6F
1483570941.69,33643,7.81,71220.5,-16.19,-17.41,-17.31,0,*69
1483570942.92,33644,7.88,71210.8,-16.21,-17.31,-17.25,0,*67
1483570944.16,33645,7.81,71222.3,-16.19,-17.31,-17.17,0,*6C
1483570945.43,33646,7.81,71256.5,-16.19,-17.25,-17.25,0,*6B
1483570946.71,33647,7.81,71270.5,-16.19,-17.17,-17.17,0,*6A
1483570947.98,33648,7.81,71256.5,-16.19,-17.25,-17.25,0,*65
1483570949.24,33649,7.81,71266.8,-16.21,-17.25,-17.17,0,*6E
1483570950.51,33650,7.81,71242.3,-16.19,-17.25,-17.25,0,*6C
1483570951.78,33651,7.81,71218.5,-16.19,-17.41,-17.41,0,*6D
1483570953.0,33652,7.81,71232.0,-16.19,-17.31,-17.31,0,*6E
1483570954.27,33653,7.81,71232.8,-16.19,-17.25,-17.25,0,*6F
1483570955.51,33654,7.81,71256.0,-16.19,-17.31,-17.25,0,*6D
1483570956.78,33655,7.81,71240.3,-16.19,-17.17,-17.17,0,*69
1483570958.06,33656,7.81,71246.3,-16.19,-17.17,-17.17,0,*6A
1483570959.33,33657,7.81,71258.5,-16.19,-17.17,-17.17,0,*6B
1483570960.62,33658,7.81,71260.5,-16.17,-17.11,-17.11,0,*6A
1483570961.92,33659,7.81,71260.8,-16.17,-17.21,-17.11,0,*68
1483570963.22,33660,7.81,71264.3,-16.17,-17.11,-17.11,0,*61
1483570964.51,33661,7.81,71274.0,-16.17,-17.11,-17.21,0,*63
1483570965.8,33662,7.81,71280.0,-16.17,-17.11,-17.11,0,*63
1483570967.1,33663,7.81,71282.5,-16.17,-17.25,-17.11,0,*65
1483570968.4,33664,7.81,71274.5,-16.17,-17.21,-17.21,0,*65
1483570969.67,33665,7.81,71270.0,-16.17,-17.35,-17.41,0,*67
1483570970.91,33666,7.81,71252.8,-16.17,-17.49,-17.49,0,*67
1483570972.18,33667,7.81,71234.0,-16.15,-17.63,-17.55,0,*61
1483570973.48,33668,7.81,71216.8,-16.17,-17.41,-17.41,0,*69
1483570974.75,33669,7.81,71242.3,-16.19,-17.55,-17.55,0,*66
1483570975.97,33670,7.81,71234.0,-16.19,-17.69,-17.69,0,*6E
1483570977.19,33671,7.81,71246.8,-16.19,-17.69,-17.69,0,*6F
1483570978.46,33672,7.81,71238.3,-16.19,-17.45,-17.55,0,*6D
1483570979.71,33673,7.81,71218.8,-16.19,-17.45,-17.31,0,*6E
1483570980.93,33674,7.81,71208.3,-16.19,-17.31,-17.31,0,*6A
1483570982.2,33675,7.81,71210.5,-16.19,-17.25,-17.17,0,*6A
1483570983.44,33676,7.81,71220.5,-16.19,-17.31,-17.25,0,*6D
1483570984.73,33677,7.81,71248.0,-16.17,-17.21,-17.11,0,*64
1483570986.01,33678,7.81,71266.0,-16.19,-17.17,-17.17,0,*66
1483570987.28,33679,7.81,71246.0,-16.19,-17.17,-17.17,0,*67
1483570988.55,33680,7.81,71238.5,-16.19,-17.25,-17.17,0,*60
1483570989.83,33681,7.81,71258.3,-16.19,-17.25,-17.17,0,*61
1483570991.09,33682,7.81,71254.0,-16.15,-17.11,-17.11,0,*6F
1483570992.37,33683,7.88,71266.8,-16.19,-17.17,-17.17,0,*62
1483570993.62,33684,7.81,71276.3,-16.21,-17.25,-17.25,0,*6E
1483570994.9,33685,7.81,71292.0,-16.19,-17.17,-17.17,0,*64
1483570996.17,33686,7.81,71284.3,-16.19,-17.25,-17.25,0,*67
1483570997.45,33687,7.81,71280.0,-16.19,-17.41,-17.41,0,*66
1483570998.74,33688,7.81,71290.0,-16.17,-17.25,-17.25,0,*67
1483571000.01,33689,7.81,71286.0,-16.17,-17.49,-17.41,0,*6E
1483571001.29,33690,7.81,71280.8,-16.17,-17.49,-17.41,0,*66
1483571002.53,33691,7.81,71280.0,-16.17,-17.49,-17.49,0,*6F
1483571003.79,33692,7.81,71248.0,-16.17,-17.63,-17.49,0,*64
1483571005.07,33693,7.81,71240.5,-16.17,-17.41,-17.35,0,*6E
1483571006.34,33694,7.88,71258.8,-16.15,-17.25,-17.21,0,*6C
1483571007.64,33695,7.81,71230.0,-16.17,-17.25,-17.21,0,*6F
1483571008.94,33696,7.81,71252.0,-16.17,-17.21,-17.11,0,*6B
1483571010.23,33697,7.81,71280.3,-16.17,-17.11,-17.11,0,*69
1483571011.52,33698,7.81,71264.0,-16.17,-17.11,-17.21,0,*65
1483571012.82,33699,7.81,71268.8,-16.17,-17.21,-17.21,0,*67
1483571014.11,33700,7.81,71278.0,-16.17,-17.11,-17.21,0,*65
1483571015.41,33701,7.81,71278.0,-16.17,-17.21,-17.11,0,*64
1483571016.7,33702,7.81,71278.3,-16.17,-17.25,-17.25,0,*64
1483571017.96,33703,7.81,71282.3,-16.17,-17.35,-17.35,0,*65
1483571019.25,33704,7.81,71278.5,-16.17,-17.25,-17.25,0,*62
1483571020.5,33705,7.81,71270.8,-16.17,-17.49,-17.35,0,*68
1483571021.77,33706,7.81,71268.8,-16.17,-17.55,-17.49,0,*6D
1483571023.02,33707,7.81,71266.3,-16.19,-17.45,-17.31,0,*6C
1483571024.29,33708,7.81,71262.0,-16.19,-17.41,-17.41,0,*60
1483571025.59,33709,7.81,71256.0,-16.17,-17.41,-17.41,0,*6F
1483571026.89,33710,7.81,71250.0,-16.17,-17.25,-17.11,0,*60
1483571028.19,33711,7.81,71268.3,-16.17,-17.21,-17.11,0,*65
1483571029.49,33712,7.81,71228.8,-16.17,-17.25,-17.11,0,*62
1483571030.78,33713,7.81,71228.8,-16.17,-17.21,-17.11,0,*67
1483571032.06,33714,7.81,71234.0,-16.19,-17.17,-17.17,0,*6D
1483571033.33,33715,7.81,71242.8,-16.19,-17.17,-17.25,0,*6D
1483571034.6,33716,7.81,71230.8,-16.15,-17.11,-17.11,0,*63
1483571035.9,33717,7.81,71240.8,-16.17,-17.25,-17.21,0,*64
1483571037.19,33718,7.81,71258.8,-16.17,-17.25,-17.21,0,*6B
1483571038.47,33719,7.81,71228.0,-16.15,-17.41,-17.41,0,*6C
1483571039.74,33720,7.81,71256.3,-16.17,-17.35,-17.25,0,*65
1483571041.04,33721,7.81,71254.0,-16.17,-17.21,-17.11,0,*66
1483571042.26,33722,7.81,71234.8,-16.15,-17.35,-17.35,0,*64
1483571043.54,33723,7.81,71240.5,-16.17,-17.35,-17.11,0,*61
1483571044.83,33724,7.81,71250.3,-16.17,-17.11,-17.11,0,*60
1483571046.1,33725,7.81,71236.8,-16.17,-17.35,-17.25,0,*60
1483571047.4,33726,7.81,71218.8,-16.17,-17.41,-17.25,0,*60
1483571048.67,33727,7.81,71242.5,-16.15,-17.11,-17.21,0,*62
1483571049.93,33728,7.81,71244.5,-16.15,-17.11,-17.11,0,*6E
1483571051.23,33729,7.81,71254.8,-16.17,-17.11,-17.07,0,*6A
1483571052.51,33730,7.81,71266.3,-16.15,-17.11,-17.07,0,*60
1483571053.8,33731,7.81,71266.0,-16.17,-17.11,-17.21,0,*67
1483571055.05,33732,7.81,71272.3,-16.15,-17.21,-17.35,0,*60
1483571056.3,33733,7.81,71200.0,-16.17,-17.35,-17.35,0,*66
1483571057.59,33734,7.81,71182.5,-16.17,-17.41,-17.35,0,*62
1483571058.83,33735,7.81,71210.5,-16.15,-17.35,-17.25,0,*63
1483571060.08,33736,7.81,71242.0,-16.15,-17.35,-17.21,0,*64
1483571061.34,33737,7.81,71272.0,-16.15,-17.11,-17.11,0,*60
1483571062.61,33738,7.81,71264.8,-16.15,-17.11,-17.11,0,*6F
1483571063.88,33739,7.81,71244.3,-16.15,-17.11,-17.11,0,*6E
1483571065.17,33740,7.81,71224.0,-16.17,-17.11,-17.11,0,*62
1483571066.44,33741,7.81,71262.8,-16.15,-17.11,-17.11,0,*61
1483571067.73,33742,7.81,71266.3,-16.17,-17.11,-17.11,0,*60
1483571069.03,33743,7.81,71272.8,-16.17,-17.11,-17.11,0,*61
1483571070.25,33744,7.81,71284.8,-16.15,-17.35,-17.35,0,*64
1483571071.5,33745,7.81,71234.5,-16.15,-17.49,-17.41,0,*6D
1483571072.74,33746,7.81,71210.5,-16.17,-17.49,-17.49,0,*64
1483571074.04,33747,7.81,71188.8,-16.17,-17.41,-17.41,0,*65
1483571075.29,33748,7.81,71184.3,-16.15,-17.25,-17.35,0,*69
1483571076.54,33749,7.81,71188.3,-16.15,-17.25,-17.35,0,*68
1483571077.84,33750,7.81,71140.5,-16.17,-17.21,-17.21,0,*63
1483571079.13,33751,7.81,71138.0,-16.17,-17.21,-17.25,0,*66
1483571080.43,33752,7.81,71158.8,-16.17,-17.25,-17.25,0,*61
1483571081.73,33753,7.81,71198.0,-16.17,-17.25,-17.21,0,*64
1483571083.02,33754,7.81,71192.5,-16.17,-17.11,-17.11,0,*67
1483571084.31,33755,7.81,71198.8,-16.17,-17.11,-17.21,0,*65
1483571085.58,33756,7.81,71202.8,-16.15,-17.21,-17.21,0,*67
1483571086.88,33757,7.81,71174.5,-16.17,-17.11,-17.11,0,*64
1483571088.14,33758,7.81,71214.0,-16.15,-17.11,-17.11,0,*69
1483571089.41,33759,7.81,71248.8,-16.15,-17.11,-17.21,0,*6B
1483571090.71,33760,7.81,71248.8,-16.17,-17.25,-17.21,0,*64
1483571091.95,33761,7.81,71248.8,-16.15,-17.35,-17.25,0,*62
1483571093.2,33762,7.81,71218.5,-16.17,-17.35,-17.35,0,*62
1483571094.43,33763,7.81,71212.5,-16.15,-17.49,-17.35,0,*6A
1483571095.71,33764,7.81,71234.8,-16.17,-17.25,-17.35,0,*65
1483571096.97,33765,7.81,71262.3,-16.15,-17.25,-17.25,0,*67
1483571098.22,33766,7.81,71230.3,-16.15,-17.35,-17.25,0,*65
1483571099.48,33767,7.81,71236.5,-16.15,-17.25,-17.25,0,*65
1483571100.75,33768,7.81,71284.8,-16.15,-17.25,-17.25,0,*6A
1483571102.0,33769,7.81,71256.3,-16.15,-17.41,-17.35,0,*68
1483571103.25,33770,7.81,71252.8,-16.15,-17.49,-17.41,0,*6B
1483571104.52,33771,7.81,71226.5,-16.15,-17.55,-17.41,0,*67
1483571105.79,33772,7.81,71258.5,-16.15,-17.41,-17.41,0,*61
1483571107.06,33773,7.81,71238.8,-16.17,-17.55,-17.49,0,*6F
1483571108.35,33774,7.81,71238.3,-16.17,-17.55,-17.41,0,*60
1483571109.64,33775,7.81,71232.8,-16.17,-17.63,-17.63,0,*64
1483571110.89,33776,7.81,71230.5,-16.17,-17.49,-17.49,0,*67
1483571112.13,33777,7.81,71242.0,-16.15,-17.49,-17.41,0,*6C
1483571113.41,33778,7.81,71240.5,-16.15,-17.41,-17.41,0,*6B
1483571114.71,33779,7.81,71266.8,-16.17,-17.41,-17.41,0,*68
1483571115.95,33780,7.81,71228.5,-16.17,-17.49,-17.49,0,*6E
1483571117.22,33781,7.81,71232.3,-16.17,-17.55,-17.49,0,*62
1483571118.5,33782,7.81,71246.0,-16.17,-17.41,-17.35,0,*6F
1483571119.74,33783,7.81,71226.3,-16.19,-17.45,-17.31,0,*60
1483571120.97,33784,7.81,71242.3,-16.15,-17.49,-17.35,0,*63
1483571122.22,33785,7.81,71238.0,-16.17,-17.49,-17.35,0,*60
1483571123.46,33786,7.81,71232.5,-16.17,-17.49,-17.49,0,*68
1483571124.74,33787,7.81,71220.3,-16.17,-17.49,-17.41,0,*61
1483571126.03,33788,7.81,71216.8,-16.17,-17.41,-17.25,0,*64
1483571127.28,33789,7.81,71210.3,-16.15,-17.35,-17.25,0,*64
1483571128.55,33790,7.81,71212.3,-16.17,-17.25,-17.35,0,*6E
1483571129.85,33791,7.81,71208.5,-16.17,-17.25,-17.25,0,*6E
1483571131.15,33792,7.81,71228.8,-16.17,-17.21,-17.21,0,*6D
1483571132.42,33793,7.88,71236.8,-16.15,-17.21,-17.11,0,*6D
1483571133.71,33794,7.81,71240.5,-16.17,-17.21,-17.21,0,*6B
1483571134.97,33795,7.81,71250.0,-16.17,-17.35,-17.35,0,*6A
1483571136.24,33796,7.81,71260.3,-16.17,-17.35,-17.21,0,*6C
1483571137.51,33797,7.81,71274.5,-16.15,-17.25,-17.21,0,*6E
1483571138.81,33798,7.81,71276.5,-16.17,-17.21,-17.11,0,*64
1483571140.07,33799,7.81,71278.3,-16.15,-17.11,-17.11,0,*64
1483571141.37,33800,7.81,71294.8,-16.17,-17.11,-17.11,0,*69
1483571142.67,33801,7.81,71294.8,-16.17,-17.11,-17.07,0,*6F
1483571143.96,33802,7.81,71292.3,-16.17,-17.11,-17.11,0,*6B
1483571145.23,33803,7.81,71292.8,-16.15,-17.21,-17.21,0,*68
1483571146.53,33804,7.81,71286.3,-16.17,-17.25,-17.21,0,*69
1483571147.8,33805,7.81,71286.8,-16.17,-17.35,-17.25,0,*6D
1483571149.1,33806,7.81,71288.3,-16.17,-17.25,-17.21,0,*6B
1483571150.39,33807,7.81,71286.8,-16.17,-17.21,-17.21,0,*6E
1483571151.66,33808,7.81,71280.3,-16.15,-17.25,-17.21,0,*67
1483571152.96,33809,7.81,71276.5,-16.17,-17.21,-17.11,0,*63
1483571154.26,33810,7.81,71276.5,-16.17,-17.21,-17.21,0,*68
1483571155.55,33811,7.81,71276.8,-16.17,-17.11,-17.11,0,*69
1483571156.84,33812,7.81,71282.0,-16.17,-17.11,-17.11,0,*6A
1483571158.11,33813,7.81,71282.5,-16.15,-17.21,-17.11,0,*6A
1483571159.38,33814,7.81,71282.8,-16.15,-17.11,-17.11,0,*6E
1483571160.65,33815,7.81,71286.5,-16.15,-17.11,-17.11,0,*6F
1483571161.92,33816,7.81,71290.5,-16.15,-17.11,-17.07,0,*6B
1483571163.2,33817,7.81,71288.3,-16.15,-17.11,-17.07,0,*6A
1483571164.5,33818,7.81,71286.3,-16.17,-17.11,-17.07,0,*67
1483571165.77,33819,7.81,71286.8,-16.15,-17.11,-17.07,0,*64
1483571167.07,33820,7.81,71274.8,-16.17,-17.11,-17.07,0,*6C
1483571168.34,33821,7.81,71266.0,-16.13,-17.07,-16.97,0,*66
1483571169.61,33822,7.81,71262.8,-16.15,-17.11,-17.07,0,*6C
1483571170.91,33823,7.81,71262.8,-16.13,-17.07,-17.03,0,*68
1483571172.2,33824,7.81,71288.8,-16.17,-17.11,-17.11,0,*6F
1483571173.47,33825,7.81,71288.3,-16.15,-17.11,-17.11,0,*6C
1483571174.73,33826,7.81,71278.5,-16.15,-17.11,-17.11,0,*6F
1483571176.0,33827,7.81,71268.8,-16.15,-17.11,-17.11,0,*6E
1483571177.27,33828,7.81,71284.5,-16.15,-17.21,-17.11,0,*62
1483571178.54,33829,7.81,71296.3,-16.15,-17.21,-17.21,0,*60
1483571179.81,33830,7.81,71296.0,-16.15,-17.21,-17.21,0,*68
1483571181.08,33831,7.81,71304.0,-16.15,-17.11,-17.11,0,*69
1483571182.33,33832,7.81,71296.3,-16.15,-17.25,-17.35,0,*6B
1483571183.57,33833,7.81,71290.0,-16.15,-17.35,-17.25,0,*6A
1483571184.8,33834,7.81,71284.3,-16.15,-17.49,-17.35,0,*67
1483571186.04,33835,7.81,71280.0,-16.15,-17.55,-17.49,0,*60
1483571187.28,33836,7.81,71270.3,-16.15,-17.49,-17.41,0,*66
1483571188.53,33837,7.81,71270.5,-16.15,-17.41,-17.49,0,*67
1483571189.77,33838,7.81,71274.8,-16.15,-17.55,-17.49,0,*6D
1483571191.06,33839,7.81,71268.5,-16.17,-17.55,-17.55,0,*63
1483571192.33,33840,7.81,71266.0,-16.15,-17.41,-17.25,0,*6D
1483571193.56,33841,7.81,71284.8,-16.15,-17.49,-17.35,0,*65
1483571194.81,33842,7.81,71282.8,-16.15,-17.41,-17.35,0,*6E
1483571196.07,33843,7.81,71286.8,-16.15,-17.41,-17.35,0,*6F
1483571197.29,33844,7.81,71274.8,-16.15,-17.49,-17.35,0,*60
1483571198.57,33845,7.81,71282.8,-16.17,-17.41,-17.35,0,*6B
1483571199.83,33846,7.81,71276.0,-16.17,-17.35,-17.35,0,*6B
1483571201.06,33847,7.81,71266.0,-16.15,-17.35,-17.35,0,*68
1483571202.33,33848,7.81,71254.8,-16.15,-17.41,-17.41,0,*67
1483571203.55,33849,7.81,71254.0,-16.15,-17.49,-17.49,0,*66
1483571204.85,33850,7.81,71246.8,-16.17,-17.41,-17.41,0,*6C
1483571206.06,33851,7.81,71248.0,-16.15,-17.49,-17.49,0,*6F
1483571207.3,33852,7.81,71254.0,-16.15,-17.55,-17.49,0,*61
1483571208.58,33853,7.81,71270.0,-16.17,-17.49,-17.41,0,*67
1483571209.79,33854,7.81,71268.0,-16.15,-17.49,-17.49,0,*6A
1483571211.07,33855,7.81,71244.0,-16.15,-17.41,-17.41,0,*6B
1483571212.34,33856,7.81,71250.0,-16.17,-17.49,-17.41,0,*62
1483571213.64,33857,7.81,71258.5,-16.17,-17.41,-17.41,0,*6B
1483571214.9,33858,7.81,71248.8,-16.17,-17.35,-17.35,0,*64
1483571216.18,33859,7.81,71250.5,-16.17,-17.41,-17.35,0,*66
1483571217.48,33860,7.81,71256.8,-16.17,-17.41,-17.41,0,*6F
1483571218.75,33861,7.81,71274.0,-16.15,-17.41,-17.41,0,*6C
1483571220.04,33862,7.81,71272.3,-16.17,-17.55,-17.55,0,*6D
1483571221.31,33863,7.81,71280.8,-16.17,-17.55,-17.49,0,*61
1483571222.6,33864,7.81,71284.3,-16.17,-17.25,-17.25,0,*6B
1483571223.9,33865,7.81,71280.8,-16.17,-17.21,-17.11,0,*69
1483571225.2,33866,7.81,71276.3,-16.17,-17.11,-17.11,0,*69
1483571226.49,33867,7.81,71260.0,-16.17,-17.25,-17.11,0,*6F
1483571227.76,33868,7.81,71272.8,-16.17,-17.35,-17.25,0,*66
1483571229.01,33869,7.81,71282.3,-16.15,-17.35,-17.21,0,*61
1483571230.31,33870,7.81,71264.0,-16.17,-17.25,-17.21,0,*6A
1483571231.59,33871,7.81,71272.8,-16.17,-17.25,-17.35,0,*6E
1483571232.88,33872,7.81,71274.0,-16.17,-17.25,-17.21,0,*68
1483571234.16,33873,7.81,71274.8,-16.17,-17.41,-17.35,0,*6E
1483571235.46,33874,7.81,71278.0,-16.17,-17.41,-17.41,0,*6A
1483571236.74,33875,7.81,71278.0,-16.17,-17.41,-17.35,0,*68
1483571238.04,33876,7.81,71272.5,-16.17,-17.25,-17.25,0,*68
1483571239.33,33877,7.81,71276.8,-16.17,-17.21,-17.21,0,*69
1483571240.63,33878,7.81,71270.5,-16.17,-17.21,-17.11,0,*65
1483571241.93,33879,7.81,71270.3,-16.17,-17.21,-17.21,0,*67
1483571243.18,33880,7.81,71246.0,-16.17,-17.35,-17.35,0,*61
1483571244.48,33881,7.81,71264.8,-16.17,-17.25,-17.21,0,*64
1483571245.75,33882,7.81,71252.3,-16.15,-17.21,-17.11,0,*62
1483571247.02,33883,7.81,71238.8,-16.15,-17.11,-17.11,0,*60
1483571248.31,33884,7.81,71244.3,-16.17,-17.11,-17.11,0,*65
1483571249.6,33885,7.81,71252.3,-16.17,-17.11,-17.11,0,*64
1483571250.88,33886,7.81,71226.5,-16.15,-17.21,-17.11,0,*66
1483571252.14,33887,7.81,71254.3,-16.15,-17.11,-17.11,0,*64
1483571253.41,33888,7.81,71252.8,-16.15,-17.21,-17.11,0,*68
1483571254.69,33889,7.81,71252.8,-16.15,-17.21,-17.11,0,*69
1483571255.95,33890,7.81,71246.8,-16.15,-17.11,-17.11,0,*62
1483571257.22,33891,7.81,71278.0,-16.15,-17.11,-17.11,0,*63
1483571258.49,33892,7.81,71274.0,-16.15,-17.11,-17.07,0,*67
1483571259.77,33893,7.81,71284.0,-16.15,-17.11,-17.07,0,*66
1483571261.04,33894,7.81,71288.0,-16.15,-17.11,-17.07,0,*61
1483571262.34,33895,7.81,71290.0,-16.13,-17.17,-17.03,0,*64
1483571263.61,33896,7.81,71296.3,-16.15,-17.11,-17.07,0,*63
1483571264.88,33897,7.81,71294.3,-16.15,-17.21,-17.21,0,*65
1483571266.18,33898,7.81,71298.8,-16.17,-17.11,-17.21,0,*6B
1483571267.4,33899,7.81,71286.0,-16.15,-17.35,-17.35,0,*6B
1483571268.67,33900,7.81,71282.5,-16.15,-17.25,-17.21,0,*6E
1483571269.94,33901,7.81,71290.0,-16.15,-17.25,-17.21,0,*6F
1483571271.21,33902,7.81,71288.3,-16.15,-17.21,-17.21,0,*68
1483571272.48,33903,7.81,71278.5,-16.13,-17.31,-17.21,0,*6E
1483571273.75,33904,7.81,71280.8,-16.15,-17.41,-17.41,0,*6E
1483571274.98,33905,7.81,71282.3,-16.15,-17.35,-17.35,0,*6F
1483571276.23,33906,7.81,71290.8,-16.17,-17.35,-17.35,0,*6E
1483571277.51,33907,7.81,71288.8,-16.15,-17.41,-17.41,0,*6D
1483571278.74,33908,7.81,71278.8,-16.15,-17.35,-17.35,0,*62
1483571279.98,33909,7.81,71272.8,-16.15,-17.35,-17.25,0,*62
1483571281.21,33910,7.81,71274.0,-16.15,-17.35,-17.35,0,*6B
1483571282.46,33911,7.81,71268.0,-16.15,-17.41,-17.35,0,*69
1483571283.71,33912,7.81,71250.3,-16.15,-17.25,-17.35,0,*68
1483571284.97,33913,7.81,71242.8,-16.17,-17.35,-17.35,0,*6A
1483571286.21,33914,7.81,71246.8,-16.15,-17.35,-17.25,0,*6E
1483571287.51,33915,7.81,71250.0,-16.17,-17.25,-17.25,0,*6C
1483571288.76,33916,7.81,71254.3,-16.17,-17.35,-17.35,0,*6F
1483571290.0,33917,7.81,71260.5,-16.15,-17.35,-17.25,0,*6D
1483571291.25,33918,7.88,71268.0,-16.15,-17.35,-17.25,0,*62
1483571292.52,33919,7.81,71266.8,-16.15,-17.21,-17.21,0,*62
1483571293.79,33920,7.81,71266.0,-16.15,-17.11,-17.11,0,*68
1483571295.08,33921,7.81,71270.0,-16.17,-17.21,-17.11,0,*68
1483571296.38,33922,7.81,71264.0,-16.17,-17.21,-17.11,0,*6B
1483571297.68,33923,7.81,71270.0,-16.17,-17.21,-17.11,0,*6A
1483571298.97,33924,7.81,71276.0,-16.17,-17.11,-17.11,0,*6E
1483571300.24,33925,7.81,71272.3,-16.15,-17.11,-17.11,0,*6D
1483571301.51,33926,7.81,71274.8,-16.15,-17.11,-17.11,0,*6E
1483571302.77,33927,7.81,71256.5,-16.15,-17.11,-17.11,0,*6F
1483571304.05,33928,7.81,71256.3,-16.15,-17.11,-17.07,0,*67
1483571305.32,33929,7.81,71262.3,-16.15,-17.11,-17.07,0,*66
1483571306.59,33930,7.81,71248.5,-16.15,-17.11,-17.07,0,*6E
1483571307.87,33931,7.81,71242.5,-16.15,-17.11,-17.07,0,*6F